O3B FM5

Last updated on Fri Dec 29 2023 00:03:04 GMT+0000 (Coordinated Universal Time)

1 39188U 13031A 23361.57170103 -.00000024 00000+0 00000+0 0 9991 2 39188 0.0347 15.2040 0003002 257.4706 87.2893 5.00114872191885
UTC large
Height (km)
Speed (km/s)
/
Latitude / Longitude
Inclination (degrees)
Orbital Period (minutes)
Azimuth
Elevation
Range (km)
Doppler Factor

Next 0 passes for location: London (51.5072 / 0.1276)

Sorry there are no passes over London.